Theta_e
352 355 357 355 355 356 355 356 355 355 355 355 355 355 356 356 356 356 356 356 356 355 355 354 355 355 355 354 354 352 351 350 350 350 349 347 348 350 351 352 353 353 351 351 351 351 351 352 351 350 351 350 350 349 348 347 346 346 346 346 344 344 344 344 343 343 343 343 343 343 344 344 344 343 342 341 341 340 341 342 342 339 340 339 339
351 355 358 357 354 355 356 355 355 355 355 355 355 355 355 356 355 355 355 355 355 355 355 354 354 354 354 353 352 351 351 350 349 348 347 347 348 348 348 350 351 351 351 350 350 350 350 350 350 350 350 348 349 349 349 347 347 347 346 345 344 344 343 343 345 344 345 345 344 343 342 342 342 342 341 340 340 340 340 341 344 341 339 339 339
353 356 359 357 354 354 355 355 355 355 354 354 355 354 355 355 354 354 354 354 354 354 354 354 353 353 352 352 352 351 350 350 349 348 348 347 347 347 347 347 345 350 352 351 350 350 349 349 349 349 348 348 347 349 347 346 346 345 345 345 345 344 344 345 346 344 343 343 342 342 342 341 340 341 340 340 339 339 339 340 340 340 338 339 339
353 355 358 357 354 354 354 354 354 355 354 354 354 355 354 354 354 354 354 354 354 353 353 353 353 352 352 352 351 350 350 349 350 349 349 349 349 349 348 347 346 350 350 350 349 349 348 349 348 348 347 347 347 348 347 348 347 347 346 344 345 346 345 344 344 343 343 343 342 342 343 342 340 340 341 341 340 340 339 339 339 339 338 338 338
353 356 358 356 355 355 354 353 354 354 353 353 354 354 354 354 354 354 354 354 353 353 353 353 352 352 351 351 351 351 350 350 350 350 349 350 349 350 349 348 347 348 349 349 348 347 348 347 347 346 345 346 346 347 348 348 348 348 348 346 347 346 343 343 343 342 343 341 342 346 346 343 342 340 341 340 340 340 340 339 339 339 339 337 338
353 357 357 358 355 355 353 353 354 353 353 353 354 354 354 354 354 354 353 353 353 353 353 352 352 352 351 351 351 351 351 351 350 350 350 351 352 351 349 349 349 349 348 348 347 347 347 345 345 344 345 345 347 347 347 347 347 347 347 348 347 345 345 344 343 343 341 342 342 347 346 346 343 340 339 340 339 339 339 339 339 339 339 338 338
353 358 357 355 354 353 353 353 354 353 353 354 354 354 353 354 354 354 354 353 353 353 353 352 352 352 352 352 352 352 351 350 350 350 351 351 351 351 349 349 349 348 347 347 346 346 345 345 345 345 345 346 346 346 346 345 345 346 346 346 345 344 343 343 342 341 342 344 348 348 346 344 343 341 341 340 339 338 338 338 338 338 338 339 338
353 355 356 355 356 354 353 353 353 353 353 353 353 353 353 353 354 354 354 354 353 353 352 352 352 352 352 352 352 351 351 351 350 350 351 350 350 350 351 349 348 347 346 346 346 346 346 345 345 345 345 345 345 345 345 344 345 345 345 344 344 343 343 342 342 341 341 345 347 348 347 345 344 340 340 342 342 340 340 339 338 337 338 338 338
350 353 355 356 356 353 353 352 352 353 353 353 353 353 353 353 353 353 353 353 353 353 352 352 352 352 352 352 352 351 351 351 350 350 350 350 350 350 350 350 350 349 349 349 348 349 346 345 345 345 345 345 344 344 344 345 345 344 344 344 343 342 342 341 340 341 342 345 346 345 347 346 345 342 341 340 340 339 338 338 338 337 338 338 338
350 351 352 354 358 352 352 352 352 353 353 353 353 353 353 353 352 353 353 353 353 353 352 352 352 352 352 352 352 351 351 350 349 350 349 349 349 349 348 348 348 348 348 348 347 348 347 348 347 345 345 344 344 344 345 344 344 344 343 343 343 342 341 340 340 340 345 344 344 346 346 344 343 340 340 339 336 337 339 339 339 338 338 337 337
350 351 352 351 355 349 350 351 352 353 353 353 353 353 353 353 353 353 353 353 353 353 353 353 352 352 352 352 351 351 351 350 350 350 350 349 349 348 348 347 347 347 347 346 346 346 347 347 346 345 345 345 344 343 343 343 343 342 342 342 342 341 341 341 340 342 344 344 344 344 342 341 343 341 338 338 338 336 337 336 336 337 337 339 339
348 351 352 352 354 349 348 349 352 352 353 353 353 353 353 352 353 353 353 353 352 352 352 353 353 352 352 352 351 351 351 350 350 350 350 349 349 348 348 347 347 346 346 346 345 345 345 345 345 345 345 344 344 342 342 343 343 342 342 341 341 340 339 340 342 343 342 342 342 344 343 342 340 338 339 338 337 336 336 337 337 337 337 337 337
346 347 350 352 354 351 349 350 351 352 353 353 352 352 353 352 353 353 353 353 352 353 353 353 353 353 352 352 351 351 351 350 350 350 350 350 349 349 348 347 347 346 345 345 344 345 345 346 345 344 344 344 342 341 341 343 343 343 342 341 340 340 339 339 341 340 342 342 342 343 341 342 342 337 337 337 337 336 336 336 336 337 336 336 336
347 347 349 349 351 354 350 350 349 350 350 352 352 352 352 352 353 353 352 352 352 353 352 352 352 352 352 352 351 350 350 350 350 349 350 350 348 348 347 347 346 346 345 344 345 345 345 345 344 344 344 343 342 341 341 343 343 343 342 341 341 340 340 340 343 340 341 340 343 341 341 342 340 338 337 338 338 337 335 335 335 335 335 336 335
346 348 349 350 351 353 353 350 348 348 348 349 351 351 351 351 352 352 352 352 352 352 352 352 352 352 351 351 351 350 350 350 350 349 349 350 348 348 347 346 346 345 345 346 346 345 345 344 344 344 345 343 341 340 341 342 343 343 343 341 341 340 339 340 339 340 339 339 340 339 340 341 337 341 338 338 338 336 336 335 335 335 335 335 335
348 348 348 348 347 352 353 354 348 347 347 348 348 346 346 350 351 351 352 352 352 352 352 352 352 352 352 351 351 350 350 350 350 350 349 349 349 347 347 345 345 345 345 346 345 344 344 345 345 345 344 343 341 340 341 342 343 344 343 342 340 340 340 342 342 341 340 340 339 340 340 338 337 338 339 338 337 335 334 334 335 335 335 335 335
346 348 347 346 348 350 350 353 350 348 346 345 341 338 340 345 348 350 351 351 351 351 352 351 351 351 351 351 350 350 350 349 348 348 348 349 349 348 346 346 345 346 346 345 345 344 343 345 345 345 344 343 340 340 340 342 343 343 343 341 340 339 341 342 340 342 342 340 339 340 342 338 339 338 337 336 336 335 334 335 334 334 335 334 334
345 346 347 348 350 349 350 353 352 354 354 345 338 336 339 343 345 348 348 348 347 350 350 349 350 350 350 350 350 350 349 349 347 347 348 349 349 349 346 346 345 345 346 345 344 344 344 343 342 344 343 342 340 340 340 341 341 342 342 341 340 340 340 340 342 341 340 339 340 341 342 340 338 338 336 336 336 335 334 334 334 334 334 334 334
345 345 346 348 346 350 351 353 352 354 353 350 346 339 338 343 344 346 347 347 346 346 347 347 349 350 350 348 349 349 347 347 348 347 347 347 348 348 348 346 345 345 346 345 345 344 345 344 344 342 341 340 339 339 341 340 341 341 342 341 340 340 340 340 340 340 338 342 342 342 341 339 338 337 337 336 336 334 334 333 333 333 333 334 334
343 344 345 345 345 347 352 351 353 353 351 353 347 346 340 339 342 343 346 346 346 346 346 345 343 344 346 347 348 348 347 347 344 347 347 347 347 347 348 343 345 344 345 346 346 345 345 344 343 341 341 341 340 339 340 341 341 341 341 341 341 340 340 343 339 339 341 340 341 342 340 339 337 336 336 336 335 335 334 332 332 332 333 333 333
341 342 342 344 343 344 346 352 353 353 351 351 349 346 344 342 341 342 342 342 345 344 344 344 340 341 345 344 346 349 351 349 349 349 345 349 346 346 347 346 345 345 344 344 344 345 345 343 342 341 341 340 340 339 340 339 339 339 341 342 341 341 343 341 341 339 340 338 340 339 339 337 336 336 336 335 335 334 333 333 332 332 332 333 332
339 339 341 341 342 342 343 346 349 352 349 346 346 349 349 345 346 348 347 345 344 343 346 350 345 347 343 349 350 347 348 348 349 343 346 347 348 347 347 347 346 344 345 344 343 344 344 342 342 341 340 339 338 335 339 339 336 338 340 342 342 343 344 343 343 339 339 340 341 339 338 336 337 337 335 335 334 334 333 332 332 331 332 332 332
337 338 339 341 343 343 342 342 343 348 352 349 346 349 350 350 348 346 347 344 345 347 349 350 345 343 345 348 347 349 347 347 346 346 343 344 349 346 347 347 346 346 344 345 343 343 343 342 341 340 340 339 336 335 335 335 339 334 340 342 342 342 343 343 343 340 339 340 341 339 338 337 338 336 335 334 335 334 333 332 331 331 331 331 331
337 338 339 341 343 342 341 341 342 344 347 349 350 348 348 349 350 350 348 349 347 345 347 348 347 345 342 345 345 345 346 349 342 341 343 347 347 345 346 346 345 345 345 345 343 342 342 342 340 338 339 336 335 334 334 336 336 340 341 340 340 340 342 343 339 340 339 338 338 339 338 338 338 337 336 336 334 334 334 333 332 331 330 330 330
339 339 341 341 342 343 342 341 341 343 342 347 350 349 349 346 346 347 344 347 347 347 348 349 348 347 341 346 345 345 347 347 346 342 345 344 345 348 347 345 345 345 344 341 337 343 344 339 340 336 336 336 335 336 336 336 339 338 338 338 339 340 341 342 341 339 340 341 341 340 338 338 338 338 336 335 334 334 333 333 332 331 331 330 330
340 339 340 341 341 341 341 341 341 340 341 342 343 348 349 346 346 346 346 346 344 345 347 342 347 348 344 345 346 346 347 345 346 347 346 347 343 344 344 343 343 343 340 339 340 338 337 340 342 338 339 337 336 336 336 336 335 336 336 338 339 340 339 339 342 339 341 341 342 340 340 339 338 338 337 336 334 333 334 334 332 332 330 330 330
338 339 341 341 340 339 340 341 340 342 342 340 342 342 346 348 347 346 345 344 346 344 341 343 345 347 348 348 346 346 346 344 343 345 345 347 345 343 342 343 344 343 344 339 342 338 336 335 339 338 338 337 335 335 334 335 336 333 336 336 337 337 339 340 340 339 340 340 342 339 340 340 340 338 337 336 335 334 334 333 332 332 330 329 330
338 339 340 340 341 338 339 339 341 341 343 340 341 341 341 342 348 346 346 346 345 345 344 345 346 347 347 347 349 346 344 343 343 344 347 348 345 344 343 341 341 343 345 344 338 336 335 335 336 335 335 335 334 334 333 333 335 336 335 335 336 337 339 338 340 341 341 342 342 339 340 340 340 341 337 336 336 336 334 332 332 332 331 330 329
339 341 340 338 337 339 340 338 340 340 342 341 339 340 339 341 342 343 343 346 347 346 347 346 345 345 347 346 343 346 344 343 343 344 345 346 347 345 344 343 343 342 344 341 337 335 335 334 335 335 335 335 334 334 333 333 334 336 334 334 335 335 337 338 339 338 339 339 341 341 340 341 341 340 340 337 336 336 334 334 333 332 331 330 330
340 340 340 339 336 337 336 337 338 338 340 340 341 339 340 340 341 342 342 343 342 343 346 344 347 345 345 345 345 346 347 344 344 345 345 345 347 348 347 345 344 344 343 340 336 335 334 334 335 335 334 333 332 334 333 332 331 334 333 333 334 335 337 337 336 336 337 339 340 343 339 340 340 340 340 339 336 336 336 334 333 333 331 331 330
341 339 340 337 340 335 334 336 336 342 337 336 340 340 341 339 339 342 342 343 344 342 342 341 341 347 346 346 345 342 345 346 346 345 346 345 343 344 345 345 345 345 343 340 340 338 338 335 334 334 331 332 331 333 332 332 332 330 331 331 332 335 335 337 335 335 335 337 338 340 339 340 340 338 340 339 340 337 336 336 335 333 333 331 331
338 339 338 339 340 335 332 335 339 344 343 334 340 339 339 338 341 341 342 345 348 344 344 344 342 343 345 345 344 346 337 345 339 340 341 342 343 343 342 343 344 343 341 339 338 338 337 333 332 335 334 333 333 334 335 333 332 330 331 329 332 333 333 335 334 335 334 336 337 339 340 340 340 339 339 339 339 339 338 337 336 336 334 333 332
338 340 339 341 340 341 337 338 340 344 342 338 337 338 339 338 339 341 342 346 344 343 342 344 346 345 343 342 341 339 335 334 337 340 342 343 343 341 341 340 341 344 341 339 339 340 338 335 334 334 333 334 334 334 332 334 333 332 333 331 332 331 332 333 334 335 334 335 336 336 339 339 342 338 337 339 337 339 339 338 337 336 335 334 332
336 338 343 340 342 344 343 343 343 340 342 337 340 335 339 339 340 339 342 342 343 342 342 343 342 340 341 342 339 337 336 337 340 342 341 341 340 340 338 338 340 344 343 340 337 336 337 336 332 332 332 332 331 333 332 331 332 333 334 333 334 334 333 331 333 334 335 335 335 337 336 337 337 341 341 340 339 337 337 339 338 337 336 335 334
335 339 339 339 344 344 344 342 344 341 341 339 337 337 339 337 336 336 338 339 338 336 340 344 343 342 338 337 336 336 338 340 340 341 340 339 338 338 338 338 340 342 341 339 338 336 338 337 333 331 332 330 331 332 332 331 331 333 335 337 333 332 334 333 334 333 333 336 337 336 337 336 339 339 339 341 340 338 336 337 339 339 338 336 335
338 339 338 341 341 343 343 341 342 341 340 340 340 340 339 339 336 335 337 338 334 334 333 336 339 341 341 340 340 339 341 341 341 340 340 339 337 338 339 341 341 340 340 340 338 336 335 338 337 334 332 330 331 331 332 333 335 334 335 337 335 334 333 333 333 333 333 335 334 335 337 337 338 337 339 339 342 340 336 336 337 338 339 338 337
342 340 340 342 341 343 342 342 341 340 339 340 340 340 339 337 336 336 335 334 332 332 332 335 335 336 337 339 340 340 338 340 341 339 339 338 337 338 340 341 341 339 339 340 337 337 337 335 337 335 336 334 331 330 333 335 335 335 336 336 336 335 333 333 333 333 331 333 334 333 336 336 337 337 338 337 341 341 338 336 336 336 336 338 339
342 342 341 341 340 341 342 342 342 341 341 341 341 338 336 336 333 333 333 331 332 331 332 332 333 333 334 333 335 339 341 340 339 338 338 338 338 338 339 340 340 339 338 339 338 340 342 340 339 341 339 337 336 335 336 336 334 333 336 336 339 337 334 333 334 332 331 331 333 333 334 336 336 336 338 338 338 339 340 337 336 334 335 335 336
339 341 341 342 341 341 342 342 341 340 339 341 340 337 336 334 332 332 331 330 332 332 332 332 332 333 332 335 335 335 335 338 339 340 339 336 336 337 339 340 340 339 339 338 337 338 338 339 339 339 338 339 339 338 337 336 335 335 333 335 336 336 338 337 336 334 333 334 333 334 333 336 337 337 337 338 337 338 338 339 340 340 338 334 335
337 338 339 341 340 341 341 342 341 340 340 338 333 330 330 327 326 327 326 328 330 330 332 331 332 330 332 332 333 334 333 335 334 336 336 336 335 335 338 338 337 338 337 336 336 336 330 333 334 335 335 335 336 337 337 335 334 334 333 334 334 337 336 336 336 335 336 336 337 336 335 335 337 337 337 337 338 337 337 338 337 337 338 336 334
335 336 337 338 339 337 336 337 339 340 335 331 329 328 326 324 324 324 324 325 327 329 330 331 331 332 331 329 331 331 332 332 332 332 332 333 334 334 334 334 337 337 335 331 337 335 332 331 332 333 334 333 335 337 337 336 333 331 332 333 334 335 337 336 335 335 333 334 336 337 338 337 337 337 338 337 336 337 337 337 337 337 337 336 338
332 333 334 336 337 335 335 336 338 336 333 332 329 329 326 323 323 324 322 322 322 324 326 329 330 331 332 331 331 331 331 331 331 331 331 330 332 331 333 333 333 335 336 336 335 335 336 334 333 332 333 333 333 335 334 332 327 325 327 324 331 332 331 334 334 334 335 335 336 337 339 338 338 340 341 339 338 336 335 336 337 336 336 336 336
332 331 334 335 335 335 333 338 335 334 333 333 330 327 327 328 326 323 323 323 328 329 327 328 330 328 329 328 328 328 329 329 330 330 329 328 328 330 331 332 333 334 335 335 335 335 335 333 333 331 329 333 334 335 334 332 328 330 331 327 325 323 330 330 331 332 333 336 336 336 336 335 335 337 339 340 339 338 336 336 335 336 337 337 336
331 330 331 332 333 332 334 336 335 334 333 333 329 330 330 330 332 330 329 326 326 329 330 330 328 326 324 326 327 327 327 328 328 327 327 329 329 329 330 330 331 332 331 331 332 334 335 334 335 334 333 328 329 331 334 335 331 329 322 324 324 323 319 323 327 332 333 333 332 334 333 332 333 334 338 338 338 339 338 337 335 336 337 337 337
329 329 330 330 331 331 334 335 334 333 333 332 331 332 330 328 329 330 329 328 327 326 325 323 325 324 325 326 325 327 328 327 327 326 324 327 327 327 328 330 329 329 329 328 328 328 332 334 334 333 332 331 327 330 331 333 332 333 330 321 320 317 320 323 326 328 330 331 329 330 332 332 333 334 335 337 339 340 339 338 338 337 338 338 338
328 329 331 330 331 330 334 335 333 333 331 332 332 328 325 324 322 320 319 319 319 320 318 320 321 322 322 325 326 327 327 327 326 326 326 325 326 327 327 327 329 328 327 327 326 326 327 328 330 330 330 331 328 325 328 331 331 331 330 330 325 319 323 326 323 318 330 328 332 331 330 331 332 333 335 335 336 336 339 340 340 340 340 339 338
327 330 330 330 330 330 334 334 332 331 332 331 331 327 325 324 324 321 319 319 317 319 323 323 323 322 325 325 325 328 327 327 327 327 326 326 325 325 327 326 326 327 327 326 325 325 324 325 328 327 327 328 328 326 326 327 331 331 331 333 330 329 329 324 321 321 316 328 327 331 330 332 332 333 333 334 335 337 339 339 340 338 339 339 339
327 328 329 329 329 330 332 332 331 330 332 331 330 327 324 324 323 321 320 318 319 320 323 325 326 325 324 324 325 325 327 327 326 326 326 326 326 324 326 326 325 325 324 324 323 325 326 326 328 327 327 327 326 323 323 328 324 323 327 327 327 328 328 327 326 322 321 317 321 328 331 332 333 333 332 333 336 337 339 340 338 337 338 338 339
325 327 327 328 329 331 331 332 330 330 331 331 329 327 325 324 323 322 319 319 322 321 321 323 323 325 324 323 324 324 326 327 326 326 326 325 325 325 325 323 322 321 320 321 323 324 325 325 325 326 325 325 324 324 322 321 321 320 322 323 323 323 324 327 327 325 320 318 317 319 322 330 329 331 333 335 334 336 337 337 336 336 338 340 341
326 328 327 327 328 330 329 330 329 329 330 331 328 327 326 326 324 322 320 320 320 320 321 321 323 324 323 324 323 323 324 325 326 325 324 322 320 319 318 318 319 317 317 317 319 320 321 321 323 323 324 324 325 324 322 321 321 321 320 321 319 318 320 320 322 321 322 323 315 315 320 320 319 325 331 331 332 333 333 334 336 335 336 338 339
327 326 326 325 327 329 328 328 329 328 330 330 328 327 326 327 324 324 322 321 320 320 320 322 322 323 322 323 322 322 324 323 323 324 322 319 319 319 319 318 319 318 317 317 318 317 319 320 320 321 322 322 321 321 321 321 320 320 321 319 318 318 317 316 317 317 318 317 315 315 317 317 317 318 323 327 330 329 329 330 331 332 334 336 337
Wind_Speed
12 14 15 15 12 12 12 11 10 10 11 12 14 12 13 14 14 14 15 15 15 14 14 14 13 13 12 11 11 12 12 10 8 10 10 9 6 5 11 10 12 13 13 13 13 11 11 12 12 11 10 10 11 11 11 10 9 9 10 10 9 10 10 11 11 11 12 12 12 13 14 14 14 14 14 14 13 12 12 14 11 11 11 12 14
14 14 14 15 12 12 12 11 10 10 11 11 14 13 13 14 14 15 15 15 15 14 15 14 13 12 12 12 12 13 12 11 9 10 13 10 7 7 7 8 10 13 13 12 12 11 11 10 11 11 11 10 11 11 11 11 10 9 10 10 10 11 10 9 10 11 11 11 12 12 13 13 13 13 14 13 12 11 10 9 7 10 10 13 13
13 14 14 16 13 13 11 11 11 11 11 11 12 14 14 14 15 16 15 15 15 14 14 14 14 13 13 13 13 13 13 11 10 10 12 12 11 9 8 10 2 12 12 11 10 9 10 10 10 10 10 11 11 11 11 11 10 9 10 10 11 11 10 8 9 10 10 12 12 12 13 13 13 13 13 13 12 12 11 11 12 11 11 13 13
15 13 14 15 14 13 12 11 10 10 11 11 10 12 14 15 15 16 16 16 15 15 15 14 14 14 13 13 13 13 13 11 10 10 10 10 12 13 13 12 9 10 12 12 11 10 10 10 10 9 10 10 10 11 11 11 10 8 10 10 9 10 9 8 8 10 10 12 12 11 8 9 11 12 13 12 13 13 13 14 15 15 15 14 15
14 14 14 14 15 13 12 11 10 10 11 11 10 10 11 14 15 15 15 15 15 16 15 15 14 14 14 13 13 13 12 11 11 11 10 10 10 11 11 12 13 11 13 13 12 11 10 10 10 9 9 10 10 10 11 12 11 9 8 10 10 9 9 9 9 10 9 7 10 8 7 8 8 11 11 13 13 14 13 14 14 14 14 14 14
14 14 14 13 13 14 13 12 11 11 11 11 10 10 10 11 13 16 16 15 15 16 15 14 14 13 13 13 13 12 11 11 10 10 9 9 8 9 10 11 11 11 11 11 10 11 10 10 9 9 9 9 9 10 11 11 10 10 9 10 10 9 9 8 9 7 3 4 8 3 7 8 8 8 11 12 13 13 13 13 14 14 14 14 14
15 13 13 13 11 13 12 12 11 11 11 11 11 10 9 10 11 12 13 13 13 14 14 14 14 13 13 13 12 12 11 11 10 9 7 6 7 8 10 11 11 11 11 11 10 10 10 10 10 9 9 9 9 11 11 11 10 10 10 11 10 9 9 9 8 6 7 10 3 4 5 7 8 7 11 11 11 12 13 13 12 11 12 11 12
12 11 12 12 10 14 12 12 11 11 12 12 12 11 10 10 11 11 12 13 13 13 14 14 13 13 13 13 12 12 12 11 10 9 7 6 6 7 7 9 10 10 11 11 11 10 11 11 10 9 9 9 9 10 10 10 10 10 10 11 10 9 8 8 8 7 7 5 3 3 4 6 8 7 10 11 11 12 13 13 12 11 12 12 12
11 13 13 12 12 16 12 12 11 12 13 13 12 12 12 11 11 12 12 13 13 13 14 14 14 14 13 13 13 12 12 12 11 10 8 8 7 7 6 7 6 7 7 8 8 8 10 11 10 10 10 9 9 9 9 9 10 10 10 10 9 8 8 7 6 8 9 2 1 4 5 6 8 8 10 10 11 12 12 12 12 12 12 11 13
11 10 12 12 13 14 12 12 11 11 12 13 13 13 13 13 13 13 12 13 12 12 12 12 12 12 12 12 12 11 11 11 11 10 9 9 9 8 7 7 6 6 7 7 8 7 8 8 8 10 11 10 10 10 10 9 10 9 9 9 9 8 8 7 7 10 2 2 4 3 6 6 7 7 10 9 8 8 11 13 12 11 10 12 14
12 10 8 12 16 15 12 10 11 11 10 11 12 12 12 11 11 12 12 12 11 11 11 10 11 11 11 11 11 11 11 11 10 10 9 9 9 8 8 8 7 7 8 8 8 8 7 8 10 12 12 12 11 10 10 9 8 8 8 8 9 8 6 6 12 3 2 3 5 5 6 4 7 8 9 10 10 10 11 11 11 11 12 14 12
11 10 9 11 18 15 13 10 11 10 11 11 10 10 11 10 10 9 10 9 9 10 10 9 9 10 11 11 11 11 10 10 9 9 9 9 9 9 9 9 9 9 8 8 9 9 9 10 12 13 14 13 12 10 10 9 8 8 7 7 8 7 5 6 9 4 2 4 7 4 5 6 8 9 10 10 11 10 10 11 11 12 12 13 13
12 10 10 11 13 14 13 11 11 11 11 12 12 11 11 10 9 9 8 9 9 8 9 9 9 9 10 11 11 11 10 10 9 9 9 9 10 10 10 10 10 9 9 9 9 10 11 12 12 13 13 13 12 10 9 8 6 7 7 7 6 7 6 8 4 3 3 4 4 4 5 6 8 8 9 10 10 10 10 11 11 11 12 12 12
11 11 10 10 10 13 11 12 10 10 9 11 11 10 9 9 9 8 8 9 9 8 8 8 8 8 9 10 10 10 10 9 9 9 9 9 10 9 9 9 9 10 10 10 10 11 12 13 13 12 12 12 12 10 8 7 6 6 8 8 6 5 5 9 5 2 3 4 2 4 5 5 7 7 9 9 10 10 10 10 10 11 12 11 11
11 11 10 10 11 12 14 11 12 11 9 8 9 10 9 7 7 8 8 9 9 8 9 8 8 8 9 10 10 10 10 9 9 9 9 9 9 8 7 10 10 9 10 9 10 12 11 12 11 10 10 10 10 11 8 7 6 7 8 8 7 6 12 3 3 4 3 2 4 3 5 5 6 2 9 9 9 8 9 10 10 10 10 11 11
11 11 10 10 11 11 11 13 12 11 9 9 8 9 5 7 9 8 7 6 7 8 8 8 8 7 8 8 9 9 10 9 8 8 8 8 9 9 8 8 10 10 9 8 10 11 11 10 10 10 9 8 9 9 9 8 7 8 8 7 6 6 7 12 2 3 3 4 3 3 5 7 3 7 8 9 9 9 8 9 10 10 10 10 10
10 10 10 10 11 11 10 11 12 13 11 9 13 10 3 5 5 6 7 6 6 7 8 8 7 8 7 7 8 8 9 9 9 8 8 8 8 9 10 10 10 10 10 10 10 10 9 10 10 10 8 8 8 7 7 7 9 9 8 7 6 4 7 10 3 1 1 4 3 3 5 7 5 8 7 7 8 8 8 8 8 9 9 9 10
8 10 9 10 10 10 9 10 12 11 9 10 12 4 5 5 7 5 5 6 6 7 6 6 7 8 8 7 8 8 8 8 8 8 8 7 7 8 8 9 11 11 11 11 11 10 10 10 9 9 8 7 7 6 6 5 7 9 8 7 6 5 6 9 2 2 4 1 3 3 4 11 9 7 7 8 8 8 8 7 8 8 8 9 9
8 8 9 9 9 9 10 9 9 9 9 8 9 8 3 7 5 6 6 6 8 5 6 6 8 9 9 8 8 9 9 8 7 6 7 6 6 7 7 8 10 11 12 11 12 11 11 11 10 8 8 8 6 5 4 3 3 6 9 8 7 5 6 8 2 2 4 2 2 3 7 9 6 7 7 8 8 7 7 7 7 7 8 8 8
7 8 8 7 8 9 8 8 8 8 8 8 10 9 8 5 4 2 5 6 6 4 6 5 2 5 6 7 7 8 8 7 8 6 8 7 7 7 8 7 8 10 10 11 11 11 11 11 9 9 8 7 7 5 5 4 2 1 7 9 8 8 6 7 1 2 2 4 1 4 11 5 6 7 7 8 7 7 7 7 6 6 7 7 7
6 8 7 6 7 8 9 8 8 8 8 7 7 8 10 12 7 6 5 2 4 5 5 6 5 4 5 5 5 7 7 5 7 7 8 8 7 4 7 7 7 8 9 9 10 10 10 10 9 9 8 7 7 7 6 5 3 1 3 9 10 7 4 2 2 2 1 4 2 7 7 4 6 6 7 7 8 7 7 6 6 5 6 6 7
8 7 8 7 6 7 7 7 7 8 10 8 6 5 8 10 9 8 6 6 6 6 6 6 5 4 4 6 6 6 6 7 5 8 8 6 6 6 6 5 6 8 6 8 9 10 10 10 9 8 8 8 7 5 5 5 4 3 3 7 8 4 3 3 2 3 1 3 2 10 7 5 5 5 7 7 7 7 6 5 6 5 5 5 6
8 8 7 7 6 6 7 7 7 7 7 7 7 6 8 7 9 8 7 9 8 8 7 6 7 9 9 6 6 3 6 5 7 5 5 6 5 6 6 5 4 6 7 5 8 7 11 10 10 8 6 5 6 4 4 5 4 5 5 7 5 3 3 3 3 2 2 4 4 11 6 4 5 5 5 6 7 7 6 6 5 5 5 5 5
9 7 8 6 7 5 6 7 6 7 7 5 6 7 6 6 5 6 5 6 8 7 6 7 7 7 5 3 5 4 5 3 4 5 6 6 5 5 4 5 5 4 6 7 7 10 11 12 11 10 7 7 6 5 6 5 5 5 4 5 4 2 4 3 3 3 2 3 6 10 6 4 5 6 6 6 7 6 7 6 6 4 4 4 5
7 8 8 7 8 7 6 6 8 8 6 6 7 6 6 6 6 6 6 5 5 6 6 6 5 6 6 5 10 5 4 3 5 4 6 6 5 4 6 6 5 5 6 6 7 8 9 8 7 9 6 7 6 4 4 4 3 4 3 4 2 3 4 3 2 2 3 3 8 8 5 4 5 5 6 6 6 6 7 7 7 6 4 3 4
8 7 8 8 8 7 8 6 5 4 6 6 5 6 6 5 5 4 4 5 5 5 4 4 5 5 7 5 1 3 4 4 4 4 3 3 7 8 6 5 5 5 6 6 5 6 7 7 8 8 6 6 6 5 4 3 4 4 4 3 3 3 4 4 2 1 2 3 9 7 4 3 3 5 5 5 5 5 6 7 6 6 5 4 3
8 7 7 7 7 7 7 8 6 6 6 5 5 6 5 5 5 6 6 4 4 5 7 6 5 4 5 4 4 4 4 3 4 4 4 3 3 3 5 5 5 6 5 6 6 6 5 5 6 6 6 6 6 7 6 5 4 5 4 5 4 4 4 4 4 3 2 2 9 9 4 3 4 3 5 5 5 5 5 5 5 5 5 4 3
8 8 7 7 7 8 7 7 6 6 4 4 4 4 4 4 4 5 6 6 5 5 4 5 5 5 5 5 5 5 5 4 4 4 4 3 3 4 4 4 5 5 5 6 6 4 4 4 5 5 6 6 6 6 7 7 5 5 5 4 4 4 4 4 3 2 2 2 6 10 6 4 4 4 4 4 6 5 5 4 5 5 6 5 4
7 8 7 7 8 7 7 7 7 6 5 3 3 2 3 4 5 5 5 6 4 4 3 4 5 5 5 6 6 4 3 4 4 4 4 3 4 4 4 5 5 6 5 5 5 4 3 4 4 5 5 5 5 5 6 7 5 5 5 5 5 4 5 4 3 4 3 2 3 10 10 6 4 3 3 5 5 7 5 5 4 5 5 4 4
8 9 7 6 7 8 7 7 6 5 5 3 2 2 2 3 4 4 3 4 4 4 3 4 3 4 4 5 6 5 3 3 4 3 3 4 4 6 6 6 5 4 4 5 4 3 3 4 5 6 6 6 6 6 5 6 7 5 6 6 6 6 4 5 4 4 3 3 2 8 12 9 5 4 3 4 6 6 7 5 4 5 4 5 4
9 10 8 7 7 8 7 7 6 3 4 4 2 2 2 3 3 3 4 3 3 3 3 2 3 3 3 4 4 4 4 5 5 4 3 6 7 6 5 4 5 5 5 4 2 3 3 3 5 6 7 7 6 5 6 6 7 7 6 7 6 6 5 5 4 4 4 4 4 4 11 12 9 6 5 4 4 5 6 6 6 5 6 4 4
10 10 7 7 7 6 8 6 7 4 2 3 3 2 2 2 2 2 1 3 3 2 2 1 1 2 2 3 2 1 3 3 5 1 6 5 4 4 4 5 4 5 5 3 2 3 3 4 4 5 5 5 5 5 5 5 6 7 7 8 7 7 6 6 6 5 5 4 4 4 4 9 11 9 8 6 5 5 5 7 6 7 5 6 4
7 9 7 7 8 5 5 5 6 5 4 2 3 1 1 1 1 1 2 3 3 1 1 1 2 3 2 2 2 5 8 3 4 5 5 4 4 4 5 6 5 4 3 4 4 3 3 2 3 4 6 5 5 5 5 5 6 5 5 6 6 7 7 7 7 5 5 5 4 4 4 5 8 13 11 9 8 6 6 5 8 7 6 6 4
8 8 8 8 7 4 4 4 3 5 3 3 2 2 2 2 0 1 2 1 3 3 3 2 2 3 4 4 5 7 6 2 2 2 0 1 3 5 5 5 5 3 3 4 4 5 4 4 6 6 6 6 7 6 5 5 6 5 5 6 5 6 6 7 6 6 5 5 5 4 5 4 4 7 9 13 11 10 8 6 7 7 6 7 6
7 8 9 9 7 5 4 3 3 3 4 3 3 2 2 1 2 1 2 1 1 1 2 3 3 3 3 1 1 1 2 3 2 1 4 2 3 4 5 5 6 5 4 5 5 5 5 5 5 6 7 6 6 6 6 5 5 5 5 5 6 6 6 6 6 6 6 6 5 5 4 4 4 4 5 7 11 12 11 10 8 7 7 9 7
7 8 8 7 7 6 5 4 4 4 4 3 3 2 3 2 1 2 2 1 0 1 1 2 3 4 4 4 3 2 3 4 4 4 3 3 3 3 4 3 5 5 5 5 6 6 6 5 5 5 6 7 7 7 5 5 5 5 4 5 5 6 6 6 7 7 7 7 6 5 5 5 5 5 4 4 6 11 14 12 10 9 7 8 10
6 7 8 7 8 8 6 6 6 6 5 4 4 3 2 3 2 3 3 1 1 2 2 2 3 4 4 4 5 4 5 4 4 3 3 4 3 3 3 4 5 5 7 6 7 6 5 5 4 5 5 5 6 5 4 4 5 5 5 5 5 5 6 6 7 7 7 6 5 6 6 6 6 5 5 4 4 5 15 14 13 11 10 8 9
5 6 7 7 7 8 7 6 5 5 4 5 4 4 3 3 3 3 2 2 2 2 2 3 3 3 3 4 5 5 5 6 5 4 3 2 2 2 3 4 5 6 6 7 6 5 4 3 4 4 4 5 5 5 4 3 3 5 5 5 4 4 5 5 5 5 6 6 7 7 6 5 5 6 5 5 5 4 5 13 15 13 12 11 10
5 6 6 7 6 6 6 6 6 5 5 5 4 4 4 2 2 2 4 3 3 3 2 3 3 3 3 4 4 3 4 5 5 4 4 4 3 2 3 5 4 5 5 5 6 5 4 2 4 4 2 2 3 2 1 1 3 4 5 5 5 5 3 4 5 5 6 7 7 7 6 6 6 5 6 6 6 5 6 6 9 9 11 15 13
6 6 7 7 7 7 6 6 6 6 6 5 5 5 4 3 3 3 3 2 3 3 3 3 2 3 3 3 2 1 2 2 3 2 2 3 3 3 3 3 3 4 4 5 5 2 2 4 7 6 6 4 4 3 2 2 2 3 4 6 6 5 4 4 6 7 6 7 6 6 6 6 7 6 7 7 6 6 5 5 5 6 7 15 18
7 8 8 8 8 8 8 8 7 7 6 6 6 4 4 3 2 2 3 3 3 4 3 3 3 4 3 3 2 2 2 2 1 2 2 1 3 3 4 4 4 3 3 5 4 6 7 8 6 6 7 5 5 3 3 4 3 2 3 4 4 6 6 5 7 6 7 6 6 6 6 6 6 6 6 5 6 7 6 6 6 6 6 5 12
9 9 10 10 9 9 9 8 7 7 7 6 5 4 3 2 3 3 3 4 4 4 4 4 3 4 4 3 3 3 3 2 2 2 1 2 2 3 3 2 3 3 2 3 3 5 5 5 6 6 6 6 5 4 4 3 2 4 3 3 2 2 5 5 7 6 6 7 7 7 7 7 7 6 6 6 7 7 7 6 6 6 6 6 7
10 10 10 10 10 9 9 8 8 8 7 7 5 4 3 3 2 4 2 4 4 4 4 5 3 5 4 3 3 2 2 3 3 4 3 2 1 1 2 2 2 3 4 4 4 5 4 5 6 5 5 5 3 3 3 5 2 3 2 2 0 2 0 4 6 6 5 8 6 7 7 8 8 8 6 6 6 7 7 7 7 7 7 7 6
10 10 10 11 9 9 9 9 8 8 7 7 6 4 5 5 3 4 3 2 4 4 4 4 4 4 5 4 4 3 3 3 4 4 4 4 2 3 2 2 2 2 3 4 4 4 4 3 4 4 5 5 5 4 2 2 3 3 3 2 1 0 2 3 3 3 4 3 5 10 7 6 7 7 6 7 6 6 7 7 8 7 7 7 7
11 12 12 11 8 12 10 10 9 9 7 8 7 6 6 6 5 5 5 5 5 4 4 4 4 4 4 4 4 4 4 4 4 4 4 4 3 4 4 4 3 3 3 3 3 3 4 3 3 3 4 5 6 3 2 1 2 1 1 3 2 3 3 0 2 2 3 1 6 6 5 4 6 5 5 6 6 6 6 7 7 7 7 7 8
12 12 11 11 11 11 10 10 9 9 8 9 8 7 7 7 7 7 7 6 5 5 4 5 5 4 4 4 5 5 5 4 4 4 4 3 4 3 3 4 4 3 3 4 4 3 3 4 4 4 5 2 2 4 4 3 2 2 1 1 2 2 0 1 1 3 3 5 6 8 5 5 2 6 4 5 5 5 4 5 6 6 7 8 8
14 11 11 11 12 11 11 11 10 9 9 9 9 7 7 7 8 7 6 6 5 4 4 4 4 4 4 4 4 4 4 4 4 4 4 4 4 4 3 3 4 3 3 3 4 3 3 5 5 4 3 3 3 2 2 4 4 4 2 1 1 2 3 2 2 3 5 2 4 2 3 2 1 3 4 4 4 4 3 4 4 6 6 7 7
13 12 11 11 13 12 11 12 10 10 9 9 10 8 8 7 8 7 6 6 5 6 6 5 4 5 5 5 4 4 4 4 4 5 5 5 5 5 4 4 3 4 3 4 3 4 4 4 4 3 3 2 2 3 3 3 2 2 2 2 2 3 3 3 3 3 5 5 2 5 3 2 2 4 4 5 3 3 2 4 6 6 6 6 7
13 13 12 12 12 11 11 12 11 11 10 11 10 10 8 8 8 7 6 5 5 6 6 6 5 5 6 4 4 5 5 4 4 5 5 6 5 5 5 4 4 4 4 5 5 5 6 5 4 4 4 3 3 2 0 3 2 3 1 1 2 2 3 3 2 2 4 5 5 3 4 3 4 3 4 3 5 5 5 5 6 7 6 5 6
13 12 11 11 12 11 12 13 12 11 10 12 11 11 10 8 8 8 8 6 6 5 5 6 6 5 6 5 5 5 5 5 4 4 5 6 6 7 6 6 5 5 5 6 6 6 6 6 5 5 5 5 4 4 3 2 1 2 1 1 3 1 4 4 4 3 3 4 6 5 5 6 6 3 3 5 6 7 6 6 7 8 8 7 6
12 12 12 12 12 12 13 14 13 11 11 12 12 12 11 10 9 9 9 8 8 7 6 6 6 6 6 6 5 5 5 5 5 5 6 7 7 6 6 6 5 5 5 5 5 5 6 6 6 6 5 5 5 5 4 3 3 2 1 1 1 2 3 3 4 3 4 5 5 5 6 6 6 6 6 6 5 6 7 7 7 7 7 7 7
Wind_Direction
145 137 138 133 138 131 126 124 120 119 118 117 119 118 116 113 111 109 109 107 107 107 111 118 117 115 117 118 120 124 116 120 118 101 98 104 58 92 137 135 136 135 136 137 136 134 130 132 131 125 122 122 120 117 113 121 119 119 115 107 102 103 101 102 106 114 114 110 107 110 110 113 110 107 108 109 107 107 123 138 126 97 95 87 83
146 138 134 139 134 129 126 127 124 123 120 116 118 121 121 117 117 116 115 115 114 113 116 119 117 119 120 120 121 124 125 128 123 105 106 105 102 100 103 136 138 136 137 136 136 135 135 134 129 124 122 123 120 120 126 128 127 121 125 125 124 115 111 126 114 115 117 113 107 101 103 105 105 107 106 106 104 97 77 59 59 91 87 89 84
140 138 137 135 133 131 128 129 130 125 124 119 117 122 123 122 123 123 122 121 119 119 118 119 120 122 123 124 124 127 129 130 128 123 126 133 131 126 126 109 142 137 129 121 124 134 136 134 127 126 127 125 123 121 123 120 119 109 111 110 115 115 120 111 111 113 113 111 107 103 102 102 106 105 104 102 101 97 86 80 80 84 93 94 89
140 138 134 131 132 132 134 131 131 127 124 120 118 120 124 126 127 129 128 127 125 124 124 124 124 125 127 130 131 133 135 137 137 141 145 149 142 144 139 142 175 144 137 137 147 158 138 135 125 133 131 127 127 128 125 121 112 103 113 116 114 109 109 105 108 113 103 116 127 136 122 117 110 106 108 105 100 97 93 89 87 90 97 93 91
137 133 132 141 143 136 135 134 134 131 128 124 123 122 124 129 129 129 130 128 128 129 128 128 129 130 133 135 136 138 141 142 141 143 142 140 139 139 143 153 157 139 146 153 151 145 142 134 135 136 133 133 133 128 127 124 116 98 104 114 116 115 115 113 110 126 128 149 160 179 113 106 107 108 106 105 101 99 99 97 96 93 92 90 84
137 133 135 136 144 141 137 137 136 133 130 129 128 127 128 127 129 132 133 131 131 131 128 130 131 133 134 136 135 135 132 131 133 137 141 141 143 139 140 140 141 140 141 147 146 146 141 140 140 139 138 134 131 127 124 124 117 105 114 116 120 120 115 118 120 113 159 227 251 202 124 118 111 111 108 103 103 102 101 102 102 99 95 90 86
134 131 135 139 145 143 138 138 141 137 135 134 132 133 134 134 130 129 128 128 127 129 130 132 135 135 137 138 136 134 133 135 134 125 118 122 126 130 137 142 144 145 146 146 150 149 150 148 142 144 142 134 132 124 125 125 127 126 123 117 124 127 118 116 124 135 190 217 130 106 111 113 114 106 113 109 105 102 101 101 101 96 92 87 85
134 130 135 139 145 141 142 140 140 141 141 140 139 140 141 142 140 136 136 132 132 132 136 137 138 140 141 140 140 138 139 138 133 121 108 105 117 130 135 141 142 147 151 153 153 153 151 147 147 149 142 136 131 125 127 128 126 126 127 126 125 124 120 115 122 171 210 250 114 89 115 109 104 107 109 107 111 110 104 102 99 99 100 99 104
133 135 134 134 141 141 142 139 143 147 145 145 145 144 149 151 149 145 142 140 138 139 141 143 144 144 143 144 142 142 141 140 136 131 123 116 113 112 117 126 138 142 144 145 143 145 151 152 150 147 136 131 130 127 122 120 127 127 127 125 127 119 115 114 139 196 221 134 139 107 105 114 114 109 109 107 104 104 109 106 105 97 90 85 85
127 127 132 136 139 135 142 141 147 152 149 149 151 149 152 156 153 150 147 146 141 141 141 144 144 144 143 143 144 143 142 142 140 134 130 127 125 121 116 126 132 129 129 136 142 144 149 146 137 135 133 131 126 122 121 127 124 125 127 121 111 104 104 133 169 225 306 157 117 90 55 26 103 102 95 92 97 87 55 54 63 82 95 90 86
124 127 131 131 139 141 144 149 148 148 149 147 150 149 150 152 149 146 144 143 143 143 145 146 147 145 146 145 145 145 146 144 141 137 134 135 133 130 129 133 133 130 137 141 142 145 142 128 134 133 128 122 112 114 113 113 121 124 122 119 107 108 106 160 208 186 137 87 82 95 82 52 91 97 111 105 90 91 93 97 101 101 91 82 84
121 122 127 125 128 139 149 157 150 147 150 149 148 145 148 152 149 143 141 137 142 147 149 148 149 151 151 150 149 149 149 147 142 139 140 138 135 137 137 138 140 141 144 143 147 148 136 133 134 131 130 124 114 109 103 104 110 118 119 106 107 117 147 197 247 96 158 128 99 105 134 112 92 99 104 105 104 100 100 100 102 97 85 82 86
125 124 123 130 138 135 151 155 150 154 154 149 154 155 150 150 151 150 143 143 147 153 154 152 151 154 153 153 153 152 152 148 144 140 140 138 139 140 143 143 147 150 149 150 150 148 142 138 139 137 134 125 113 104 98 98 117 129 123 118 122 126 187 220 225 158 110 95 106 118 88 92 85 105 111 102 104 106 99 98 96 95 90 93 96
128 126 128 134 136 146 144 153 150 151 154 157 151 146 143 144 152 151 151 154 157 158 155 154 155 152 155 156 153 152 152 148 144 146 140 139 137 140 149 147 149 154 153 155 152 149 149 145 144 141 136 126 119 109 100 101 111 144 141 134 132 155 206 228 260 104 109 103 107 84 93 107 103 120 107 104 93 92 99 102 99 94 97 99 93
130 127 132 127 139 149 156 155 152 153 152 152 142 137 134 141 151 155 161 162 162 160 159 157 156 155 157 155 152 149 148 150 150 150 147 144 134 134 148 151 150 153 154 155 156 152 150 149 146 141 134 125 118 115 112 109 118 143 152 146 142 181 215 205 192 123 121 106 98 156 115 98 91 123 101 100 104 108 99 98 98 100 100 97 99
127 129 131 135 135 141 160 154 151 148 153 148 130 105 81 159 166 156 158 165 162 159 158 160 158 153 153 155 153 151 153 153 153 149 149 146 139 136 144 153 154 148 150 145 147 152 155 152 143 135 127 120 121 122 122 120 118 136 150 148 155 203 232 286 111 125 119 143 126 74 95 95 146 126 110 111 107 105 111 108 107 109 108 104 100
139 137 131 130 138 148 154 166 154 146 154 150 71 67 209 195 147 145 164 159 159 167 169 161 156 156 152 153 157 158 159 156 150 143 143 151 148 138 148 158 152 146 142 147 151 157 155 141 136 129 122 120 120 120 124 129 127 131 142 156 158 158 286 300 101 114 117 90 125 135 109 126 154 118 123 114 111 115 110 110 111 110 104 98 95
142 143 134 135 141 146 145 149 158 158 154 119 92 141 196 185 167 158 160 154 159 183 165 156 160 158 159 157 161 165 161 158 152 149 151 152 148 136 145 157 151 150 150 151 151 145 143 139 149 127 127 124 124 125 122 123 133 135 147 157 160 158 246 277 139 97 84 153 122 108 104 94 122 135 122 120 120 117 116 112 109 109 111 106 96
138 138 140 143 144 143 139 146 149 156 153 145 134 192 162 165 171 180 162 147 176 179 168 179 171 167 163 165 164 170 163 159 153 155 156 151 150 144 144 146 156 154 151 149 149 148 145 136 134 129 128 123 112 94 77 92 128 146 147 161 158 164 221 253 143 123 113 174 96 128 100 117 148 130 122 124 119 117 108 115 122 116 109 110 106
138 141 140 146 148 144 139 145 147 150 148 135 150 165 157 130 164 133 145 171 184 166 157 181 177 192 171 165 165 169 167 163 159 183 167 159 151 191 135 145 151 155 151 154 150 148 141 138 132 128 123 115 102 88 78 57 5 153 165 156 167 168 210 242 102 115 130 73 9 93 104 149 136 131 133 125 123 115 119 112 114 123 116 108 105
146 144 138 146 157 150 148 140 144 145 129 129 144 162 160 171 171 170 134 172 168 181 157 148 185 176 196 169 178 193 175 185 172 186 171 179 167 142 149 138 144 152 154 158 153 140 137 130 128 126 122 117 105 96 80 77 60 328 192 177 167 198 206 159 181 135 119 121 178 98 112 139 151 138 135 129 124 124 123 123 113 114 120 117 109
148 147 152 149 154 150 154 144 139 143 142 142 160 164 152 172 181 181 183 180 176 158 171 188 164 155 239 195 198 193 219 175 176 177 199 159 175 143 150 153 135 139 140 154 150 146 134 130 125 126 128 131 149 180 159 126 97 16 217 187 194 208 190 166 208 152 104 116 133 107 122 155 146 160 138 128 127 129 129 123 123 123 112 112 108
154 155 150 156 161 162 155 158 151 140 145 142 144 159 158 175 174 183 178 200 176 212 189 191 171 202 193 195 203 162 238 171 176 181 184 182 149 148 154 152 145 126 130 127 144 154 136 126 125 126 118 152 195 204 202 188 159 159 200 198 217 200 167 172 189 130 179 76 95 115 138 162 158 147 133 134 135 137 129 114 120 123 127 122 120
157 162 160 159 155 163 167 150 158 156 152 150 156 157 167 167 162 156 168 187 188 195 206 204 191 201 115 232 268 198 220 167 97 162 192 168 144 161 144 137 139 151 137 158 141 137 142 141 135 135 162 189 207 211 213 205 199 195 202 213 213 171 188 174 207 165 141 148 103 127 153 169 166 151 141 141 143 144 133 129 121 118 120 130 127
157 158 161 165 163 160 164 171 167 163 168 160 156 163 159 176 168 171 175 172 184 182 197 203 178 207 156 217 217 179 214 205 154 186 212 157 161 201 179 187 188 187 173 206 190 162 178 165 163 177 193 210 213 217 239 207 224 215 211 222 208 197 187 189 193 174 146 141 104 135 165 185 175 157 151 146 148 155 142 137 140 141 142 147 139
158 172 168 165 167 168 168 154 160 176 165 173 170 150 169 170 169 162 171 174 179 191 208 196 216 214 198 204 275 183 217 198 196 190 192 192 161 198 178 177 196 208 194 211 215 197 196 180 186 190 196 212 213 212 212 211 208 229 217 207 216 202 191 192 178 200 147 138 120 139 171 210 221 164 158 145 146 159 148 144 145 145 150 159 161
173 169 166 165 164 167 162 158 168 161 171 181 166 168 167 159 166 167 179 167 186 189 205 195 200 200 211 190 190 204 210 204 195 197 208 181 188 192 195 179 200 211 199 218 214 210 216 197 197 199 201 202 213 215 203 204 227 210 217 216 215 209 199 198 177 180 152 167 125 151 169 225 244 206 171 147 151 165 148 155 149 148 161 168 173
182 161 169 161 175 166 162 167 157 159 168 184 167 172 169 166 166 152 193 160 195 192 190 197 187 196 196 195 206 213 201 194 202 196 196 194 204 202 210 193 202 212 208 214 220 223 217 210 203 206 205 206 201 215 220 202 193 230 220 227 208 214 217 197 181 169 169 183 141 154 171 204 224 272 195 160 151 162 154 160 155 157 165 174 172
171 172 170 173 172 160 162 166 148 164 149 193 163 167 163 183 175 186 173 168 176 190 173 167 197 192 193 211 208 205 209 206 201 198 194 191 215 215 209 207 210 211 208 220 233 224 222 212 194 201 194 197 210 211 214 218 197 206 217 218 220 211 211 199 197 188 200 150 226 148 168 178 216 242 254 185 168 158 167 164 171 157 168 169 168
179 170 173 170 164 159 165 155 159 156 142 167 142 148 179 189 192 197 180 182 180 171 163 178 176 177 189 216 207 210 209 211 194 188 197 196 196 215 210 206 212 219 219 220 226 234 225 207 203 196 182 201 207 205 223 218 215 205 219 224 205 224 204 211 200 211 183 188 204 139 168 167 193 216 238 262 194 171 170 172 174 159 169 171 172
174 169 170 165 149 165 160 153 147 140 150 166 146 151 182 217 186 187 186 181 150 165 180 200 192 159 180 208 210 217 258 209 176 160 208 210 213 215 218 211 212 216 219 224 217 237 228 214 213 204 194 199 213 202 217 217 229 205 209 226 216 218 208 221 219 212 215 209 198 181 164 170 180 194 216 226 260 213 179 177 178 178 166 184 170
175 166 168 152 156 173 152 153 131 149 207 150 150 151 216 197 186 189 172 122 147 153 165 193 217 130 154 192 199 247 223 316 52 195 198 216 205 207 207 217 226 224 215 224 222 232 230 226 202 199 209 187 194 206 215 226 221 225 202 216 220 214 215 209 220 209 228 217 227 203 181 174 174 181 199 211 224 249 234 182 189 189 180 180 182
166 162 154 152 157 165 144 156 140 149 190 176 140 153 170 172 147 201 129 115 120 95 108 112 66 62 61 25 7 39 47 79 171 192 210 227 222 222 206 212 219 225 226 219 226 225 228 208 183 195 188 187 189 192 215 224 231 232 233 214 212 226 227 212 209 217 214 228 227 234 222 206 180 182 188 196 208 223 235 238 196 200 189 190 180
157 159 152 159 154 155 154 153 149 164 189 175 149 177 133 105 141 129 88 133 144 167 167 173 104 91 73 66 49 86 112 81 237 175 247 283 249 239 236 215 214 217 221 208 221 221 210 200 185 191 180 189 190 185 202 214 226 218 216 238 226 227 231 234 214 211 222 229 235 239 239 220 211 182 189 190 196 205 217 223 227 216 197 191 188
156 157 165 161 156 160 153 149 159 183 173 168 197 140 132 119 143 121 101 53 135 176 146 130 141 163 156 165 210 117 140 144 232 190 180 196 225 232 231 223 197 200 202 205 220 221 214 208 203 191 177 194 195 188 204 216 228 227 220 228 230 223 230 237 241 233 218 222 234 234 236 248 229 230 201 188 189 200 204 206 218 231 227 203 197
161 155 162 163 166 165 157 165 174 188 186 176 180 153 125 153 109 103 115 66 79 127 139 123 120 113 128 130 161 160 163 186 208 235 224 223 238 226 214 223 190 192 205 211 213 213 218 213 206 218 180 194 200 191 212 222 230 230 234 238 237 235 222 218 225 222 229 221 215 215 225 230 233 233 245 217 197 192 197 202 204 214 223 229 200
160 160 163 164 168 168 175 182 179 189 187 173 173 143 147 144 134 93 88 107 97 91 97 120 121 119 125 122 128 130 139 154 170 159 166 180 216 215 202 206 195 195 208 209 212 213 214 214 209 216 208 213 214 205 197 224 238 237 238 247 249 238 239 223 218 220 228 212 220 213 216 224 222 224 233 242 224 202 187 198 200 202 212 219 218
156 166 170 176 177 174 179 182 176 185 177 174 169 158 145 132 138 118 79 94 81 72 81 92 100 106 114 116 125 135 146 147 149 148 144 135 172 201 185 191 194 201 207 209 210 210 214 228 218 217 225 224 213 208 209 231 258 254 251 248 247 251 248 241 231 221 225 211 216 225 216 214 225 219 228 236 243 231 192 192 197 203 210 208 213
161 167 170 178 179 176 177 169 175 167 175 169 139 124 124 132 106 147 140 142 125 97 92 102 92 101 117 118 119 137 141 136 139 151 137 142 145 171 190 179 191 201 206 212 214 210 205 194 234 212 239 246 251 266 277 267 263 274 275 258 242 248 265 250 249 232 224 225 223 221 219 218 220 226 229 234 231 226 231 196 194 207 207 207 207
164 172 177 181 186 177 179 165 169 166 162 166 169 174 176 176 153 161 151 112 109 110 107 99 95 97 90 96 111 141 121 142 127 113 133 151 153 145 147 170 192 189 203 214 207 159 36 203 211 215 218 217 226 241 231 211 243 261 270 284 281 278 263 271 247 236 233 230 229 228 234 221 220 217 226 231 234 239 231 234 230 216 225 191 202
172 176 183 188 188 189 181 177 171 169 175 179 183 184 178 159 158 162 138 141 121 115 103 82 82 73 67 87 95 86 75 73 103 154 145 135 166 163 162 178 174 198 185 243 191 145 188 213 217 219 223 218 219 224 226 237 233 272 257 263 272 281 293 293 286 253 238 234 229 230 232 230 232 232 239 240 238 235 235 232 226 241 233 224 190
184 183 188 187 187 190 187 178 171 175 181 187 177 179 175 171 168 156 144 141 147 153 123 117 96 90 90 78 71 67 65 76 75 89 180 167 171 169 171 189 192 153 118 114 145 161 163 185 197 198 208 213 217 201 206 196 203 240 252 240 246 261 271 289 282 283 253 226 219 228 229 233 230 225 229 232 239 244 244 238 236 236 237 236 211
182 185 186 184 183 187 189 180 179 178 180 184 186 176 159 130 180 123 152 110 68 55 87 91 105 107 93 89 74 69 88 92 88 77 88 111 123 156 153 153 144 135 133 135 136 154 176 186 197 202 180 204 206 167 195 225 213 223 212 230 245 323 194 249 268 279 293 290 288 236 224 236 234 236 233 236 240 238 240 238 236 231 237 241 251
182 182 184 185 182 188 188 183 176 182 179 183 194 157 144 136 108 122 91 93 114 109 102 112 105 109 103 78 78 82 89 92 92 113 91 79 104 102 91 90 97 99 115 116 114 111 143 172 201 194 183 179 189 187 224 223 254 216 232 265 95 177 273 214 235 250 275 272 292 295 268 247 239 224 219 237 233 242 237 240 239 237 239 245 244
187 184 183 184 182 184 186 181 175 180 182 178 179 148 142 148 136 132 129 115 128 141 145 130 128 115 111 104 93 97 104 94 90 74 93 101 90 95 90 90 80 80 94 93 86 97 125 135 144 170 195 214 168 157 157 158 152 23 194 113 163 207 233 91 323 288 267 77 270 280 279 286 272 264 247 234 250 238 237 236 238 243 245 241 239
189 187 183 183 179 182 181 178 176 179 182 180 178 172 174 168 162 164 162 159 150 160 159 142 146 147 111 109 110 105 92 94 93 86 78 95 110 113 116 111 102 97 82 76 88 92 106 107 80 71 73 99 212 186 156 156 138 142 174 320 358 320 1 73 298 233 177 209 224 217 196 195 268 268 267 274 251 250 226 228 222 231 237 239 244
190 179 179 181 181 180 178 178 179 178 181 181 180 183 184 183 179 177 167 161 150 141 119 131 130 116 121 122 112 114 112 105 91 91 95 94 97 106 111 104 112 112 94 87 79 59 60 57 52 60 110 96 14 16 135 147 123 81 41 31 237 241 290 295 278 307 267 151 292 239 268 321 208 297 274 257 237 232 242 261 238 236 223 229 239
181 176 177 176 179 180 177 180 182 181 178 179 183 190 190 188 186 185 167 165 151 133 141 135 124 126 126 133 131 130 127 112 109 104 108 104 107 110 108 105 106 107 111 101 97 84 86 82 69 68 46 46 120 100 41 24 27 65 54 354 3 327 287 284 268 267 278 282 299 282 236 176 327 294 301 281 285 294 263 261 256 232 226 228 222
181 180 180 175 175 177 177 181 186 182 176 179 185 191 199 191 190 184 173 160 144 142 149 146 143 136 134 130 128 122 116 111 103 107 102 105 105 96 96 94 86 92 101 98 90 85 76 71 75 69 65 69 54 56 145 73 49 21 328 183 274 266 264 223 291 299 298 288 262 254 275 220 269 244 246 284 287 286 280 272 274 287 277 240 235
184 177 176 171 174 174 180 185 188 185 178 179 188 191 199 195 196 190 177 163 157 150 161 149 151 154 141 138 136 139 131 128 121 109 114 111 107 109 105 99 93 77 73 85 94 94 90 88 79 79 83 88 78 63 52 81 120 120 270 312 281 283 282 273 239 289 285 276 283 286 286 281 278 258 237 254 254 260 268 264 260 257 260 256 241
176 173 175 176 174 177 182 186 186 187 182 183 188 194 197 198 199 193 184 172 165 164 166 162 160 167 155 152 152 140 144 134 130 124 120 121 119 112 110 109 105 104 103 107 101 102 102 100 94 91 85 87 91 94 88 77 81 82 23 22 29 11 343 328 331 316 302 281 271 264 271 278 281 285 271 252 256 258 252 246 254 253 258 259 258